ロニオス-パンスターズ彗星

P/2000 OZ21 ( LONEOS-PanSTARRS ) 2011

English version
Home page
Updated on October 9, 2022

---------------------------------------------------------------------

・ プロフィール

・ 軌道要素

                    Epoch = 2011 Nov. 15.0 TT
     T = 2011 Oct. 29.46698 TT        Peri. = 350.02942
     e = 0.5801646                    Node  = 339.39820 2000.0
     q = 2.0856514 AU                 Incl. =   5.65049
       a =  4.9677836 AU   n = 0.08901436   P =  11.07 years

・ 光度変化

        m1 = 16.5 + 5 logΔ + 10.0 log r

---------------------------------------------------------------------

軌道要素は、CBET 5166に掲載されたものです。
光度グラフはComet for Windowsで作成したものです。

---------------------------------------------------------------------

Copyright(C) Seiichi Yoshida (comet@aerith.net). All rights reserved.